Terminal Aerodrome Forecast
Issued by NWS Lake Charles, LA

Home | Current Version | Previous Version | Text Only | Print | Product List | Glossary On
Versions: 1 2 3 4 5 6 7 8 9 10 11 12 13 14 15 16 17 18 19
000
FTUS44 KLCH 070520
TAFAEX
TAF
KAEX 070520Z 0706/0806 18008KT P6SM FEW025
      TEMPO 0709/0713 5SM BR BKN025
     FM071600 19011G19KT P6SM VCSH SCT040
     FM080000 18006KT P6SM FEW040=

USA.gov is the U.S. government's official web portal to all federal, state and local government web resources and services.